Weather observations for the past three days for
Stanley Municipal Airport
Metric (Imperial)
Date Time (cdt) Wind (kph) Vis. (km) Weather Sky Cond. Temperature (ºC) Relative Humidity Wind Chill (°C) Heat Index (°C) Pressure Precipitation (cm)
Air Dwpt 6 hour altimeter (cm) sea level (mb) 1 hr 3 hr 6 hr
Max. Min.
04 22:55 NW 24 16.09 Overcast SCT060 OVC070 1 -5 65% -4 75.87 0.0
04 22:35 NW 22 16.09 Overcast OVC065 2 -6 56% -3 75.87 0.0
04 22:15 NW 26 G 37 16.09 Overcast OVC065 3 -6 52% -2 75.84 0.0
04 21:55 NW 26 16.09 Overcast OVC060 3 -6 52% -2 75.84 0.0
04 21:35 NW 26 G 39 16.09 Overcast OVC055 3 -6 52% -2 75.82 0.0
04 21:15 NW 39 16.09 Overcast and Breezy OVC055 3 -6 52% -3 75.82 0.0
04 20:55 NW 31 G 44 16.09 Overcast OVC055 4 -6 48% -1 75.79 0.0
04 20:35 NW 31 G 43 16.09 Overcast OVC055 4 -7 45% -1 75.77 0.0
04 20:15 NW 33 G 44 16.09 Overcast and Breezy OVC055 4 -7 45% -1 75.77 0.0
04 19:55 NW 33 G 46 16.09 Overcast and Breezy BKN050 OVC060 4 -7 45% -1 75.77 0.0
04 19:35 NW 39 G 56 16.09 Overcast and Breezy OVC050 4 -7 45% -2 75.77 0.0
04 19:15 NW 35 G 48 16.09 Overcast and Breezy OVC050 5 -7 42% 0 75.74 0.0
04 18:55 NW 37 G 52 16.09 Overcast and Breezy OVC049 5 -7 42% -0 75.74 0.0
04 18:35 NW 39 G 54 16.09 Overcast and Breezy OVC050 5 -7 42% -0 75.74 0.0
04 18:15 NW 37 G 54 16.09 Mostly Cloudy and Breezy BKN050 BKN055 6 -8 36% 1 75.72 0.0
04 17:55 NW 46 G 57 16.09 Mostly Cloudy and Windy BKN050 6 -8 36% 1 75.69 0.0
04 17:35 NW 44 G 56 16.09 A Few Clouds and Windy FEW050 6 -8 36% 1 75.69 0.0
04 17:15 NW 46 16.09 A Few Clouds and Windy FEW048 7 -8 34% 2 75.67 0.0
04 16:55 NW 37 G 59 16.09 Partly Cloudy and Breezy SCT048 6 -7 39% 1 75.67 0.0
04 16:35 NW 43 G 56 16.09 Partly Cloudy and Windy SCT048 6 -7 39% 1 75.67 0.0
04 16:15 NW 41 G 54 16.09 Partly Cloudy and Breezy SCT042 6 -7 39% 1 75.67 0.0
04 15:55 NW 39 G 54 16.09 Mostly Cloudy and Breezy BKN041 6 -6 42% 1 75.69 0.0
04 15:35 NW 43 G 57 16.09 Overcast and Windy OVC039 5 -6 45% -0 75.69 0.0
04 15:15 NW 46 G 61 16.09 Overcast and Windy OVC040 5 -6 45% -1 75.69 0.0
04 14:55 NW 41 G 54 16.09 Overcast and Breezy OVC040 5 -6 45% -0 75.69 0.0
04 14:35 NW 43 G 57 16.09 Overcast and Windy OVC042 5 -6 45% -0 75.69 0.0
04 14:15 NW 43 G 59 16.09 Overcast and Windy BKN038 OVC044 5 -5 49% -0 75.67 0.0
04 13:55 NW 44 G 56 16.09 Overcast and Windy OVC044 5 -6 45% -1 75.67 0.0
04 13:35 NW 48 G 70 16.09 Overcast and Windy SCT040 OVC049 5 -6 45% -1 75.67 0.0
04 13:15 NW 46 G 61 16.09 Overcast and Windy FEW034 SCT040 OVC049 5 -4 53% -1 75.67 0.0
04 12:55 NW 44 G 56 16.09 Mostly Cloudy and Windy FEW033 SCT039 BKN047 5 -4 53% -1 75.64 0.0
04 12:35 NW 43 16.09 Overcast and Windy FEW031 BKN040 OVC055 5 -3 57% -0 75.64 0.0
04 12:15 NW 37 16.09 Light Unknown Precip and Breezy FEW036 OVC043 5 -2 61% -0 75.62 0.0
04 11:55 NW 41 G 52 16.09 Overcast and Breezy SCT036 BKN042 OVC055 5 -3 57% -0 75.62 0.0
04 11:35 NW 46 G 57 16.09 Overcast and Windy FEW039 BKN046 OVC055 5 -4 53% -1 75.59 0.0
04 11:15 NW 46 G 59 16.09 Overcast and Windy BKN043 BKN049 OVC055 5 -5 49% -1 75.59 0.0
04 10:55 NW 43 G 56 16.09 Overcast and Windy BKN047 OVC055 6 -6 42% 1 75.59 0.0
04 10:35 NW 39 G 63 16.09 Overcast and Breezy OVC049 6 -6 42% 1 75.59 0.0
04 10:15 NW 52 G 61 16.09 Mostly Cloudy and Windy FEW040 BKN049 6 -6 42% 0 75.57 0.0
04 09:55 NW 46 16.09 Partly Cloudy and Windy FEW039 SCT047 6 -5 46% 1 75.57 0.0
04 09:35 NW 46 G 57 16.09 Mostly Cloudy and Windy SCT036 BKN044 BKN049 5 -5 49% -1 75.57 0.0
04 09:15 NW 43 G 54 16.09 Overcast and Windy FEW037 OVC049 5 -4 53% -0 75.57 0.0
04 08:55 NW 37 G 52 16.09 Overcast and Breezy FEW037 OVC048 4 -3 61% -1 75.57 0.0
04 08:35 NW 37 G 48 16.09 Overcast and Breezy FEW025 SCT029 OVC049 4 -2 65% -1 75.59 0.0
04 08:15 NW 37 16.09 Overcast and Breezy FEW026 SCT031 OVC047 3 -2 70% -3 75.57 0.0
04 07:55 NW 28 16.09 Overcast OVC044 3 -1 75% -2 75.54 0.0
04 07:35 NW 22 16.09 Overcast OVC044 3 -2 70% -1 75.51 0.0
04 07:15 NW 24 G 33 16.09 Overcast SCT031 OVC047 3 -4 60% -2 75.51 0.0
04 06:55 NW 26 G 37 16.09 Overcast OVC031 3 -4 60% -2 75.51 0.0
04 06:35 NW 30 G 43 16.09 Overcast BKN030 OVC046 3 -3 65% -2 75.49 0.0
04 06:15 NW 31 G 44 16.09 Mostly Cloudy SCT028 BKN049 2 -2 75% -4 75.49 0.0
04 05:55 NW 20 16.09 Fair CLR 2 -2 75% -2 75.46 0.0
04 05:35 N 28 16.09 Fair CLR 2 -1 81% -3 75.44 0.0
04 05:15 N 30 16.09 Fair CLR 3 -2 70% -2 75.44 0.0
04 04:55 NW 30 G 43 16.09 Fair CLR 3 -1 75% -2 75.44 0.0
04 04:35 N 28 16.09 Fair CLR 4 -1 70% -1 75.39 0.0
04 04:15 N 33 G 44 16.09 A Few Clouds and Breezy FEW120 4 -2 65% -1 75.36 0.0
04 03:55 N 35 G 46 16.09 A Few Clouds and Breezy FEW110 5 -1 66% 0 75.34 0.0
04 03:35 N 31 G 43 16.09 Fair CLR 6 -1 61% 2 75.31 0.0
04 03:15 N 30 16.09 Fair CLR 6 -2 57% 2 75.31 0.0
04 02:55 N 28 G 41 16.09 A Few Clouds FEW100 6 -2 57% 2 75.29 0.0
04 02:35 NW 37 G 54 16.09 Mostly Cloudy and Breezy FEW075 BKN095 BKN110 7 -3 49% 3 75.26 0.0
04 02:15 N 41 16.09 Overcast and Breezy OVC075 8 -3 46% 4 75.26 0.0
04 01:55 NW 24 16.09 Mostly Cloudy BKN075 BKN090 7 -1 57% 4 75.23 0.0
04 01:35 N 24 G 39 16.09 Partly Cloudy FEW055 SCT100 8 -1 53% 5 75.23 0.0
04 01:15 N 31 16.09 Mostly Cloudy BKN110 9 -1 50% 5 75.21 0.0
04 00:55 N 41 G 54 16.09 A Few Clouds and Breezy FEW044 FEW120 11 -2 41% 75.18 0.0
04 00:35 N 37 16.09 A Few Clouds and Breezy FEW044 FEW055 11 -2 41% 75.16 0.0
04 00:15 NW 30 G 44 16.09 Partly Cloudy FEW044 FEW055 SCT070 12 -1 41% 75.16 0.0
03 23:55 N 43 16.09 Overcast and Windy FEW070 BKN075 OVC095 12 -1 41% 75.13 0.0
03 23:35 N 28 G 37 16.09 Overcast SCT075 BKN095 OVC110 12 0 44% 75.13 0.0
03 23:15 N 24 G 39 16.09 Overcast FEW047 BKN090 OVC110 12 2 51% 75.13 0.0
03 22:55 N 24 G 39 16.09 Overcast FEW050 BKN090 OVC120 12 2 51% 75.11 0.0
03 22:35 N 26 G 39 16.09 Mostly Cloudy FEW048 BKN095 BKN120 12 3 54% 75.11 0.0
03 22:15 N 37 G 56 16.09 Partly Cloudy and Breezy SCT048 SCT120 13 3 51% 75.08 0.0
03 21:55 N 35 G 57 16.09 Partly Cloudy and Breezy FEW046 FEW080 SCT120 14 2 44% 75.06 0.0
03 21:35 N 46 G 67 16.09 Mostly Cloudy and Windy SCT100 BKN120 15 2 42% 74.98 0.0
03 21:15 NW 24 16.09 A Few Clouds FEW120 18 0 30% 74.88 0.0
03 20:55 NW 26 G 37 16.09 Fair CLR 19 -1 26% 74.88 0.0
03 20:35 NW 30 G 44 16.09 A Few Clouds FEW110 20 -1 24% 74.88 0.0
03 20:15 NW 39 G 52 16.09 Partly Cloudy and Breezy SCT110 22 -2 20% 74.88 0.0
03 19:55 W 33 G 54 16.09 A Few Clouds and Breezy FEW100 22 -1 22% 74.85 0.0
03 19:35 W 50 G 61 16.09 Fair and Windy CLR 22 -1 22% 74.88 0.0
03 19:15 W 48 G 59 16.09 Fair and Windy CLR 23 -2 19% 74.88 0.0
03 18:55 W 50 G 67 16.09 Fair and Windy CLR 23 -3 17% 74.9 0.0
03 18:35 W 43 G 63 16.09 Fair and Windy CLR 23 -3 17% 74.96 0.0
03 18:15 W 52 G 70 16.09 Fair and Windy CLR 23 -3 17% 74.98 0.0
03 17:55 W 44 G 70 16.09 Fair and Windy CLR 24 -3 16% 24 75.03 0.0
03 17:35 W 43 G 63 16.09 Fair and Windy CLR 24 -3 16% 24 75.06 0.0
03 17:15 W 46 G 63 16.09 Fair and Windy CLR 24 -2 18% 24 75.08 0.0
03 16:55 W 46 G 65 16.09 Fair and Windy CLR 24 -1 19% 24 75.11 0.0
03 16:35 W 48 G 61 16.09 Fair and Windy CLR 23 -1 20% 75.16 0.0
03 16:15 W 43 G 61 16.09 Fair and Windy CLR 23 -1 20% 75.18 0.0
03 15:55 W 50 G 65 16.09 Fair and Windy CLR 23 -1 20% 75.23 0.0
03 15:35 W 44 G 57 16.09 Fair and Windy CLR 22 -2 20% 75.26 0.0
03 15:15 W 48 G 61 16.09 Fair and Windy CLR 22 -2 20% 75.29 0.0
03 14:55 W 41 G 61 16.09 Fair and Breezy CLR 22 0 23% 75.34 0.0
03 14:35 W 44 G 59 16.09 Fair and Windy CLR 23 -1 20% 75.36 0.0
03 14:15 W 41 G 63 16.09 Fair and Breezy CLR 22 -1 22% 75.41 0.0
03 13:55 W 46 G 56 16.09 Fair and Windy CLR 22 -1 22% 75.44 0.0
03 13:35 W 39 G 63 16.09 Fair and Breezy CLR 21 -1 23% 75.49 0.0
03 13:15 W 43 G 56 16.09 Fair and Windy CLR 21 -1 23% 75.51 0.0
03 12:55 W 43 G 56 16.09 Fair and Windy CLR 21 -1 23% 75.57 0.0
03 12:35 W 41 G 67 16.09 Fair and Breezy CLR 20 -1 24% 75.59 0.0
03 12:15 W 37 G 56 16.09 Fair and Breezy CLR 20 -2 23% 75.62 0.0
03 11:55 W 39 G 56 16.09 Fair and Breezy CLR 19 -1 26% 75.67 0.0
03 11:35 W 37 G 48 16.09 Fair and Breezy CLR 19 -1 26% 75.69 0.0
03 11:15 W 39 G 52 16.09 Fair and Breezy CLR 18 -1 28% 75.74 0.0
03 10:55 W 43 16.09 Fair and Windy CLR 17 -1 30% 75.74 0.0
03 10:35 W 31 G 48 16.09 Fair CLR 16 -2 29% 75.77 0.0
03 10:15 W 37 G 48 16.09 Fair and Breezy CLR 16 -2 29% 75.79 0.0
03 09:55 W 37 16.09 Fair and Breezy CLR 15 -2 31% 75.79 0.0
03 09:35 W 33 16.09 Fair and Breezy CLR 14 -3 31% 75.82 0.0
03 09:15 W 30 G 43 16.09 Fair CLR 13 -3 33% 75.84 0.0
03 08:55 W 31 16.09 Fair CLR 12 -2 38% 75.84 0.0
03 08:35 W 22 16.09 Fair CLR 11 -2 41% 75.87 0.0
03 08:15 W 20 16.09 A Few Clouds FEW080 10 -2 43% 8 75.9 0.0
03 07:55 W 22 16.09 A Few Clouds FEW080 8 -1 53% 5 75.9 0.0
03 07:35 W 24 16.09 Fair CLR 7 -1 57% 4 75.9 0.0
03 07:15 W 19 16.09 Fair CLR 5 -1 66% 2 75.9 0.0
03 06:55 W 19 16.09 Fair CLR 4 -1 70% 0 75.92 0.0
03 06:35 W 17 16.09 Fair CLR 3 -1 75% -1 75.92 0.0
03 06:15 W 13 16.09 Fair CLR 3 -1 75% 0 75.95 0.0
03 05:55 W 15 16.09 Fair CLR 3 -1 75% -0 75.95 0.0
03 05:35 W 15 16.09 Fair CLR 2 -2 75% -2 75.97 0.0
03 05:15 W 13 16.09 Fair CLR 2 -2 75% -1 75.97 0.0
03 04:55 W 11 16.09 Fair CLR 2 -2 75% -1 76 0.0
03 04:35 W 9 16.09 Fair CLR 1 -2 81% -2 76 0.0
03 04:15 W 11 16.09 Fair CLR 1 -2 81% -2 76 0.0
03 03:55 W 11 16.09 Fair CLR 1 -2 81% -2 76 0.0
03 03:35 W 9 16.09 Fair CLR 1 -2 81% -2 76 0.0
03 03:15 W 9 16.09 Fair CLR 1 -2 81% -2 76.02 0.0
03 02:55 W 7 16.09 Fair CLR 0 -2 87% -2 76.02 0.0
03 02:35 W 6 16.09 Fair CLR 1 -2 81% 76.02 0.0
03 02:15 SW 7 16.09 Fair CLR 2 -2 75% 0 76.05 0.0
03 01:55 SW 9 16.09 Fair CLR 1 -1 87% -2 76.05 0.0
03 01:35 Calm 16.09 Fair CLR 1 -1 87% 76.05 0.0
03 01:15 Calm 16.09 A Few Clouds FEW046 4 -3 61% 76.05 0.0
03 00:55 N 7 16.09 Fair CLR 5 -2 61% 4 76.05 0.0
03 00:35 N 6 16.09 Fair CLR 4 -3 61% 76.05 0.0
03 00:15 Calm 16.09 Fair CLR 3 -3 65% 76.05 0.0
02 23:55 N 11 16.09 Fair CLR 7 -3 49% 5 76.07 0.0
02 23:35 N 13 16.09 Fair CLR 7 -3 49% 5 76.07 0.0
02 23:15 N 13 16.09 Fair CLR 6 -3 53% 4 76.07 0.0
02 22:55 N 15 16.09 Fair CLR 9 -3 43% 7 76.07 0.0
02 22:35 N 15 16.09 Fair CLR 8 -3 46% 6 76.07 0.0
02 22:15 N 15 16.09 Fair CLR 9 -2 46% 7 76.07 0.0
02 21:55 N 15 16.09 Fair CLR 8 -3 46% 6 76.07 0.0
02 21:15 N 15 14.48 Fair CLR 12 -3 35% 76.05 0.0
02 20:55 N 20 12.87 Fair CLR 13 -3 33% 76.02 0.0
02 20:35 N 24 16.09 Fair CLR 15 -2 31% 76 0.0
02 20:15 N 20 G 33 16.09 Fair CLR 16 -1 31% 75.97 0.0
02 19:55 N 22 G 39 16.09 A Few Clouds FEW080 16 -1 31% 75.97 0.0
02 19:35 N 33 16.09 A Few Clouds and Breezy FEW080 16 -1 31% 75.95 0.0
02 19:15 N 30 G 39 16.09 A Few Clouds FEW080 16 0 34% 75.95 0.0
02 18:55 N 33 16.09 Mostly Cloudy and Breezy BKN080 17 0 32% 75.95 0.0
02 18:35 N 31 G 41 16.09 Mostly Cloudy BKN075 BKN085 18 -1 28% 75.95 0.0
02 18:15 N 30 G 46 16.09 Partly Cloudy SCT080 19 -2 24% 75.92 0.0
02 17:55 N 33 16.09 Partly Cloudy and Breezy SCT075 18 -1 28% 75.92 0.0
02 17:35 N 31 G 43 16.09 Partly Cloudy FEW080 SCT090 19 -2 24% 75.92 0.0
02 17:15 N 31 G 43 16.09 Partly Cloudy SCT075 20 -2 23% 75.92 0.0
02 16:55 N 35 G 46 16.09 Partly Cloudy and Breezy SCT075 18 -2 26% 75.92 0.0
02 16:35 N 31 G 48 16.09 Mostly Cloudy BKN080 18 0 30% 75.92 0.0
02 16:15 N 37 G 48 16.09 Mostly Cloudy and Breezy FEW070 BKN080 19 0 28% 75.9 0.0
02 15:55 N 41 G 52 16.09 Partly Cloudy and Breezy SCT070 SCT085 19 0 28% 75.9 0.0
02 15:35 N 35 G 54 16.09 A Few Clouds and Breezy FEW070 18 0 30% 75.92 0.0
02 15:15 N 43 G 59 16.09 Fair and Windy CLR 20 0 26% 75.9 0.0
02 14:55 N 46 G 63 16.09 Fair and Windy CLR 19 1 30% 75.9 0.0
02 14:35 N 48 G 63 16.09 Fair and Windy CLR 19 1 30% 75.9 0.0
02 14:15 N 48 G 63 16.09 Fair and Windy CLR 19 1 30% 75.9 0.0
02 13:55 N 46 G 61 16.09 Fair and Windy CLR 19 2 32% 75.9 0.0
02 13:35 N 44 G 65 16.09 Fair and Windy CLR 19 2 32% 75.9 0.0
02 13:15 NW 41 G 56 16.09 Fair and Breezy CLR 18 2 34% 75.9 0.0
02 12:55 N 48 G 67 16.09 Fair and Windy CLR 17 1 34% 75.92 0.0
02 12:35 NW 43 G 56 16.09 Fair and Windy CLR 16 2 39% 75.92 0.0
02 12:15 N 41 G 56 16.09 Fair and Breezy CLR 17 1 34% 75.92 0.0
02 11:55 NW 44 G 56 16.09 Fair and Windy CLR 17 1 34% 75.9 0.0
02 11:35 NW 43 G 56 16.09 Fair and Windy CLR 17 0 32% 75.9 0.0
02 11:15 NW 43 G 52 16.09 Fair and Windy CLR 18 0 30% 75.9 0.0
02 10:55 NW 39 G 48 16.09 Fair and Breezy CLR 17 0 32% 75.87 0.0
02 10:35 NW 35 16.09 Fair and Breezy CLR 17 1 34% 75.9 0.0
02 10:15 NW 30 16.09 Fair CLR 15 0 36% 75.9 0.0
02 09:55 NW 24 G 41 16.09 Fair CLR 14 0 39% 75.9 0.0
02 09:35 NW 30 G 41 16.09 Fair CLR 12 -1 41% 75.9 0.0
02 09:15 NW 31 16.09 Fair CLR 13 -1 38% 75.87 0.0
02 08:55 NW 30 G 44 16.09 A Few Clouds FEW110 12 -2 38% 75.87 0.0
02 08:35 W 30 16.09 A Few Clouds FEW110 11 -2 41% 75.87 0.0
02 08:15 W 24 16.09 Fair CLR 10 -2 43% 7 75.87 0.0
02 07:55 W 26 16.09 Fair CLR 10 -2 43% 7 75.87 0.0
02 07:35 W 19 G 30 16.09 Fair CLR 10 -2 43% 8 75.9 0.0
02 07:15 W 15 16.09 A Few Clouds FEW120 9 -3 43% 7 75.9 0.0
02 06:55 SW 15 16.09 Mostly Cloudy BKN120 8 -3 46% 6 75.9 0.0
02 06:35 SW 15 16.09 Mostly Cloudy BKN120 7 -2 53% 5 75.9 0.0
02 06:15 Calm 16.09 Mostly Cloudy BKN120 8 -3 46% 75.95 0.0
02 05:55 Calm 16.09 Mostly Cloudy FEW090 BKN120 8 -3 46% 75.95 0.0
02 05:35 S 15 16.09 Overcast SCT080 OVC090 9 -2 46% 7 75.95 0.0
02 05:15 S 11 16.09 Overcast BKN080 OVC100 9 -2 46% 8 75.95 0.0
02 04:55 SW 7 16.09 Overcast OVC100 8 -3 46% 7 75.97 0.0
02 04:35 SE 11 16.09 Overcast FEW055 FEW075 OVC090 8 -3 46% 6 76 0.0
02 04:15 SE 11 16.09 Mostly Cloudy FEW050 SCT070 BKN080 8 -3 46% 6 76 0.0
02 03:55 S 13 16.09 Overcast SCT075 BKN100 OVC120 8 -3 46% 6 76.02 0.0
02 03:35 S 9 16.09 Overcast FEW075 BKN100 OVC120 7 -3 49% 5 76.05 0.0
02 03:15 SW 9 16.09 Mostly Cloudy BKN110 6 -3 53% 4 76.02 0.0
02 02:55 SW 13 16.09 A Few Clouds FEW120 6 -3 53% 4 76.05 0.0
02 02:35 SW 13 16.09 Fair CLR 6 -3 53% 4 76.05 0.0
02 02:15 SW 9 16.09 Fair CLR 6 -3 53% 4 76.07 0.0
02 01:55 S 19 16.09 Fair CLR 7 -3 49% 4 76.07 0.0
02 01:35 S 19 16.09 Fair CLR 7 -3 49% 4 76.07 0.0
02 01:15 S 15 16.09 Fair CLR 5 -3 57% 2 76.12 0.0
02 00:55 SW 11 16.09 Fair CLR 5 -3 57% 3 76.15 0.0
02 00:35 SW 7 16.09 Fair CLR 5 -4 53% 4 76.15 0.0
02 00:15 SW 7 16.09 Fair CLR 6 -5 46% 5 76.17 0.0
01 23:55 SW 7 16.09 Fair CLR 6 -5 46% 5 76.17 0.0
01 23:35 SW 9 16.09 Fair CLR 6 -4 49% 4 76.2 0.0
01 23:15 SW 11 16.09 Fair CLR 6 -4 49% 4 76.23 0.0
01 22:55 SW 9 16.09 Fair CLR 7 -4 46% 5 76.23 0.0
Date Time (cdt) Wind (kph) Vis. (km) Weather Sky Cond. Air Dwpt Max. Min. Relative Humidity Wind Chill (°C) Heat Index (°C) altimeter (cm) sea level (mb) 1 hr 3 hr 6 hr
6 hour
Temperature (ºC) Pressure Precipitation (cm)